Location: *
(41.3833°S, 177.8333°W)
Time: 01:48:41
(UTC+00:00)

Meteor 1-23 Rocket - Pass Details

Date: 01 April 2020
Orbit: 838 x 887 km, 81.3° (Epoch: 05 June)

Event Time Altitude Azimuth Distance (km) Brightness Sun altitude
Rises 16:07:08 0° 192° (SSW) 3,431 7.4 -23.3°
Reaches altitude 10° 16:09:34 10° 192° (SSW) 2,488 6.7 -22.9°
Maximum altitude 16:15:12 78° 277° (W) 872 4.1 -21.8°
Drops below altitude 10° 16:20:48 10° 3° (N) 2,468 6.5 -20.8°
Sets 16:23:12 0° 4° (N) 3,400 7.3 -20.4°
